Private Wetterstation Wechselburg
Wetterdaten: Dienstag, 22.12.2020
Datum Zeit Temp. +2m Bodentemp. Temp.+5cm Temp. Wind Windchill X Diff Temp. Feuchte +2m Feuchte +5cm Luftdruck Regen Wind Richtung Richtung Sonnenschein Taupunkt Windchill Windben
22.12.2020 00:00 5,8 C 6,2 C 5,4 C 6,1 C 6,1 C 0,3 C 83 % 87 % 1017,9 hPa 0,0 l/m 0,5 km/h (0 Bft) O-NO 67 0 min 3,1 C 6,1 C 1,6 km/h (1 Bft)
22.12.2020 00:05 5,9 C 6,2 C 5,5 C 6,2 C 6,2 C 0,3 C 83 % 87 % 1017,9 hPa 0,0 l/m 0,8 km/h (0 Bft) O-NO 67 0 min 3,2 C 6,2 C 0,0 km/h (0 Bft)
22.12.2020 00:10 5,9 C 6,2 C 5,5 C 6,3 C 6,3 C 0,4 C 83 % 87 % 1017,5 hPa 0,0 l/m 0,8 km/h (0 Bft) O-NO 67 0 min 3,2 C 6,3 C 1,8 km/h (1 Bft)
22.12.2020 00:15 6,1 C 6,2 C 5,5 C 6,4 C 6,4 C 0,3 C 84 % 87 % 1017,5 hPa 0,0 l/m 0,8 km/h (0 Bft) S 180 0 min 3,6 C 6,4 C 3,2 km/h (1 Bft)
22.12.2020 00:20 6,3 C 6,2 C 5,7 C 6,6 C 6,6 C 0,3 C 84 % 88 % 1017,5 hPa 0,0 l/m 1,6 km/h (1 Bft) S-SO 157 0 min 3,8 C 6,6 C 4,2 km/h (1 Bft)
22.12.2020 00:25 6,7 C 6,2 C 5,9 C 7,1 C 7,1 C 0,4 C 84 % 88 % 1017,5 hPa 0,0 l/m 3,5 km/h (1 Bft) S-SO 157 0 min 4,2 C 7,1 C 10,3 km/h (2 Bft)
22.12.2020 00:30 6,8 C 6,2 C 6,2 C 7,2 C 7,2 C 0,4 C 84 % 88 % 1017,2 hPa 0,0 l/m 3,7 km/h (1 Bft) S 180 0 min 4,3 C 7,2 C 6,6 km/h (2 Bft)
22.12.2020 00:35 7,2 C 6,2 C 6,4 C 7,7 C 7,7 C 0,5 C 84 % 87 % 1017,2 hPa 0,0 l/m 3,2 km/h (1 Bft) N-NO 22 0 min 4,7 C 7,7 C 2,3 km/h (1 Bft)
22.12.2020 00:40 7,4 C 6,2 C 6,5 C 7,9 C 7,9 C 0,5 C 83 % 88 % 1017,2 hPa 0,0 l/m 3,1 km/h (1 Bft) S-SO 157 0 min 4,7 C 7,9 C 0,0 km/h (0 Bft)
22.12.2020 00:45 7,6 C 6,2 C 6,7 C 8,1 C 8,1 C 0,5 C 83 % 87 % 1017,2 hPa 0,0 l/m 2,7 km/h (1 Bft) S-SO 157 0 min 4,9 C 8,1 C 1,9 km/h (1 Bft)
22.12.2020 00:50 7,8 C 6,2 C 6,8 C 8,3 C 8,3 C 0,5 C 83 % 87 % 1017,2 hPa 0,0 l/m 3,5 km/h (1 Bft) O-NO 67 0 min 5,1 C 8,3 C 3,5 km/h (1 Bft)
22.12.2020 00:55 7,9 C 6,1 C 7,0 C 8,4 C 8,4 C 0,5 C 82 % 87 % 1017,2 hPa 0,0 l/m 3,1 km/h (1 Bft) O 90 0 min 5,0 C 8,4 C 10,9 km/h (2 Bft)
22.12.2020 01:00 8,1 C 6,1 C 7,0 C 8,3 C 8,3 C 0,2 C 82 % 86 % 1017,2 hPa 0,0 l/m 2,9 km/h (1 Bft) N-NO 22 0 min 5,2 C 8,3 C 5,0 km/h (1 Bft)
22.12.2020 01:05 8,0 C 6,1 C 7,0 C 8,2 C 8,2 C 0,2 C 81 % 86 % 1017,2 hPa 0,0 l/m 2,7 km/h (1 Bft) O-NO 67 0 min 4,9 C 8,2 C 1,6 km/h (1 Bft)
22.12.2020 01:10 8,1 C 6,1 C 7,0 C 8,1 C 8,1 C 0,0 C 81 % 86 % 1016,4 hPa 0,0 l/m 1,1 km/h (1 Bft) SW 225 0 min 5,0 C 8,1 C 4,5 km/h (1 Bft)
22.12.2020 01:15 8,0 C 6,1 C 7,0 C 8,2 C 8,2 C 0,2 C 81 % 86 % 1016,4 hPa 0,0 l/m 1,0 km/h (0 Bft) W 270 0 min 4,9 C 8,2 C 1,8 km/h (1 Bft)
22.12.2020 01:20 8,0 C 6,1 C 7,0 C 8,1 C 8,1 C 0,1 C 81 % 86 % 1016,4 hPa 0,0 l/m 1,6 km/h (1 Bft) O-NO 67 0 min 4,9 C 8,1 C 2,4 km/h (1 Bft)
22.12.2020 01:25 8,0 C 6,1 C 7,1 C 8,1 C 8,1 C 0,1 C 81 % 86 % 1016,4 hPa 0,0 l/m 1,6 km/h (1 Bft) W-SW 247 0 min 4,9 C 8,1 C 3,9 km/h (1 Bft)
22.12.2020 01:30 8,1 C 6,1 C 7,1 C 8,1 C 8,1 C 0,0 C 81 % 86 % 1016,6 hPa 0,0 l/m 1,8 km/h (1 Bft) S 180 0 min 5,0 C 8,1 C 5,1 km/h (1 Bft)
22.12.2020 01:35 8,1 C 6,1 C 7,1 C 8,3 C 8,3 C 0,2 C 81 % 86 % 1016,6 hPa 0,0 l/m 2,1 km/h (1 Bft) S 180 0 min 5,0 C 8,3 C 4,5 km/h (1 Bft)
22.12.2020 01:40 8,2 C 6,1 C 7,2 C 8,3 C 8,3 C 0,1 C 81 % 86 % 1016,6 hPa 0,0 l/m 2,6 km/h (1 Bft) S 180 0 min 5,1 C 8,3 C 7,1 km/h (2 Bft)
22.12.2020 01:45 8,3 C 6,1 C 7,3 C 8,3 C 8,3 C 0,0 C 81 % 86 % 1016,6 hPa 0,0 l/m 4,0 km/h (1 Bft) SW 225 0 min 5,2 C 8,3 C 11,1 km/h (2 Bft)
22.12.2020 01:50 8,4 C 6,3 C 7,3 C 8,2 C 7,9 C 0,0 C 81 % 87 % 1016,4 hPa 0,0 l/m 5,0 km/h (1 Bft) S 180 0 min 5,3 C 7,4 C 8,7 km/h (2 Bft)
22.12.2020 01:55 8,4 C 6,3 C 7,2 C 8,1 C 7,6 C 0,0 C 81 % 87 % 1016,4 hPa 0,0 l/m 4,8 km/h (1 Bft) S 180 0 min 5,3 C 7,1 C 14,2 km/h (3 Bft)
22.12.2020 02:00 8,4 C 6,3 C 7,2 C 8,1 C 7,4 C 0,0 C 81 % 87 % 1016,4 hPa 0,0 l/m 4,5 km/h (1 Bft) SW 225 0 min 5,3 C 7,4 C 10,8 km/h (2 Bft)
22.12.2020 02:05 8,5 C 6,3 C 7,3 C 8,1 C 7,3 C 0,0 C 81 % 87 % 1016,4 hPa 0,0 l/m 4,7 km/h (1 Bft) O-NO 67 0 min 5,4 C 6,8 C 3,2 km/h (1 Bft)
22.12.2020 02:10 8,5 C 6,3 C 7,3 C 8,2 C 7,5 C 0,0 C 81 % 87 % 1016,1 hPa 0,0 l/m 5,3 km/h (1 Bft) W-SW 247 0 min 5,4 C 6,8 C 4,8 km/h (1 Bft)
22.12.2020 02:15 8,5 C 6,3 C 7,3 C 8,4 C 8,2 C 0,0 C 82 % 87 % 1016,1 hPa 0,0 l/m 3,7 km/h (1 Bft) S-SO 157 0 min 5,6 C 8,2 C 4,2 km/h (1 Bft)
22.12.2020 02:20 8,4 C 6,3 C 7,4 C 8,4 C 8,3 C 0,0 C 82 % 87 % 1016,1 hPa 0,0 l/m 3,4 km/h (1 Bft) N 360 0 min 5,5 C 8,3 C 3,1 km/h (1 Bft)
22.12.2020 02:25 8,5 C 6,3 C 7,5 C 8,4 C 8,3 C 0,0 C 82 % 87 % 1016,1 hPa 0,0 l/m 4,2 km/h (1 Bft) S 180 0 min 5,6 C 8,3 C 14,8 km/h (3 Bft)
22.12.2020 02:30 8,5 C 6,3 C 7,6 C 8,5 C 8,5 C 0,0 C 82 % 87 % 1015,5 hPa 0,0 l/m 4,3 km/h (1 Bft) S-SO 157 0 min 5,6 C 8,5 C 5,1 km/h (1 Bft)
22.12.2020 02:35 8,7 C 6,4 C 7,5 C 8,5 C 8,1 C 0,0 C 82 % 87 % 1015,5 hPa 0,0 l/m 5,3 km/h (1 Bft) SO 135 0 min 5,8 C 7,5 C 11,1 km/h (2 Bft)
22.12.2020 02:40 8,7 C 6,4 C 7,5 C 8,3 C 7,6 C 0,0 C 82 % 88 % 1015,5 hPa 0,0 l/m 5,6 km/h (1 Bft) S 180 0 min 5,8 C 6,8 C 10,8 km/h (2 Bft)
22.12.2020 02:45 8,5 C 6,5 C 7,3 C 7,9 C 6,7 C 0,0 C 82 % 88 % 1015,5 hPa 0,0 l/m 6,6 km/h (2 Bft) S-SO 157 0 min 5,6 C 5,5 C 17,4 km/h (3 Bft)
22.12.2020 02:50 8,4 C 6,5 C 7,2 C 7,8 C 6,5 C 0,0 C 83 % 89 % 1015,6 hPa 0,0 l/m 6,8 km/h (2 Bft) SO 135 0 min 5,7 C 5,2 C 8,2 km/h (2 Bft)
22.12.2020 02:55 8,3 C 6,6 C 7,1 C 7,7 C 6,6 C 0,0 C 84 % 90 % 1015,6 hPa 0,7 l/m 6,1 km/h (2 Bft) S-SO 157 0 min 5,8 C 5,5 C 7,6 km/h (2 Bft)
22.12.2020 03:00 8,3 C 6,6 C 6,9 C 7,8 C 6,8 C 0,0 C 84 % 90 % 1015,6 hPa 0,7 l/m 5,1 km/h (1 Bft) S 180 0 min 5,8 C 6,1 C 5,3 km/h (1 Bft)
22.12.2020 03:05 8,1 C 6,6 C 6,9 C 7,7 C 6,9 C 0,0 C 85 % 91 % 1015,6 hPa 0,0 l/m 4,5 km/h (1 Bft) S 180 0 min 5,7 C 6,9 C 7,1 km/h (2 Bft)
22.12.2020 03:10 8,0 C 6,6 C 6,8 C 7,6 C 6,7 C 0,0 C 85 % 91 % 1015,1 hPa 0,0 l/m 5,1 km/h (1 Bft) O-NO 67 0 min 5,6 C 6,0 C 7,4 km/h (2 Bft)
22.12.2020 03:15 8,0 C 6,6 C 6,8 C 7,5 C 6,4 C 0,0 C 86 % 92 % 1015,1 hPa 0,0 l/m 6,0 km/h (2 Bft) S 180 0 min 5,8 C 5,3 C 8,5 km/h (2 Bft)
22.12.2020 03:20 8,1 C 6,6 C 6,8 C 7,5 C 6,2 C 0,0 C 86 % 92 % 1015,1 hPa 0,0 l/m 7,2 km/h (2 Bft) S-SO 157 0 min 5,9 C 4,8 C 14,8 km/h (3 Bft)
22.12.2020 03:25 8,1 C 6,6 C 6,8 C 7,6 C 6,1 C 0,0 C 86 % 92 % 1015,1 hPa 0,0 l/m 7,9 km/h (2 Bft) S-SO 157 0 min 5,9 C 4,5 C 10,8 km/h (2 Bft)
22.12.2020 03:30 8,0 C 6,7 C 6,8 C 7,4 C 6,1 C 0,0 C 86 % 92 % 1015,0 hPa 0,0 l/m 8,0 km/h (2 Bft) S 180 0 min 5,8 C 4,4 C 16,7 km/h (3 Bft)
22.12.2020 03:35 8,0 C 6,7 C 6,8 C 7,5 C 6,0 C 0,0 C 86 % 92 % 1015,0 hPa 0,0 l/m 8,4 km/h (2 Bft) S-SO 157 0 min 5,8 C 4,2 C 11,6 km/h (2 Bft)
22.12.2020 03:40 8,0 C 6,7 C 6,8 C 7,5 C 6,1 C 0,0 C 86 % 92 % 1015,0 hPa 0,0 l/m 8,0 km/h (2 Bft) SO 135 0 min 5,8 C 4,4 C 8,7 km/h (2 Bft)
22.12.2020 03:45 8,0 C 6,7 C 6,9 C 7,4 C 6,1 C 0,0 C 87 % 92 % 1015,0 hPa 0,0 l/m 7,7 km/h (2 Bft) S-SO 157 0 min 6,0 C 4,5 C 13,8 km/h (3 Bft)
22.12.2020 03:50 8,0 C 6,7 C 6,9 C 7,5 C 5,9 C 0,0 C 87 % 92 % 1014,6 hPa 0,0 l/m 8,5 km/h (2 Bft) SW 225 0 min 6,0 C 4,1 C 10,5 km/h (2 Bft)
22.12.2020 03:55 8,0 C 6,7 C 6,9 C 7,5 C 6,0 C 0,0 C 87 % 92 % 1014,6 hPa 0,0 l/m 8,2 km/h (2 Bft) S-SO 157 0 min 6,0 C 4,3 C 8,0 km/h (2 Bft)
22.12.2020 04:00 8,0 C 6,7 C 7,0 C 7,3 C 6,0 C 0,0 C 87 % 92 % 1014,6 hPa 0,0 l/m 8,2 km/h (2 Bft) S 180 0 min 6,0 C 4,3 C 11,6 km/h (2 Bft)
22.12.2020 04:05 8,0 C 6,8 C 7,0 C 7,3 C 6,0 C 0,0 C 87 % 92 % 1014,6 hPa 0,0 l/m 8,2 km/h (2 Bft) S 180 0 min 6,0 C 4,3 C 7,6 km/h (2 Bft)
22.12.2020 04:10 7,9 C 6,8 C 7,0 C 7,5 C 6,1 C 0,0 C 87 % 92 % 1014,4 hPa 0,0 l/m 8,4 km/h (2 Bft) N-NW 337 0 min 5,9 C 4,3 C 8,4 km/h (2 Bft)
22.12.2020 04:15 8,0 C 6,8 C 7,1 C 7,4 C 6,3 C 0,0 C 87 % 93 % 1014,4 hPa 0,7 l/m 7,6 km/h (2 Bft) S 180 0 min 6,0 C 4,8 C 8,2 km/h (2 Bft)
22.12.2020 04:20 7,9 C 6,8 C 7,1 C 7,5 C 6,6 C 0,0 C 87 % 93 % 1014,4 hPa 0,0 l/m 6,8 km/h (2 Bft) SO 135 0 min 5,9 C 5,3 C 7,6 km/h (2 Bft)
22.12.2020 04:25 7,9 C 6,8 C 7,1 C 7,5 C 6,6 C 0,0 C 87 % 93 % 1014,4 hPa 0,0 l/m 6,8 km/h (2 Bft) SO 135 0 min 5,9 C 5,3 C 8,4 km/h (2 Bft)
22.12.2020 04:30 7,9 C 6,8 C 7,1 C 7,5 C 6,6 C 0,0 C 87 % 93 % 1014,0 hPa 0,0 l/m 6,9 km/h (2 Bft) S-SO 157 0 min 5,9 C 5,3 C 10,0 km/h (2 Bft)
22.12.2020 04:35 8,0 C 6,8 C 7,2 C 7,6 C 6,4 C 0,0 C 87 % 93 % 1014,0 hPa 0,0 l/m 7,7 km/h (2 Bft) O-NO 67 0 min 6,0 C 4,9 C 3,7 km/h (1 Bft)
22.12.2020 04:40 8,1 C 6,8 C 7,3 C 7,5 C 6,4 C 0,0 C 87 % 93 % 1014,0 hPa 0,0 l/m 7,7 km/h (2 Bft) SO 135 0 min 6,1 C 4,9 C 8,9 km/h (2 Bft)
22.12.2020 04:45 8,1 C 6,8 C 7,4 C 7,7 C 6,8 C 0,0 C 87 % 93 % 1014,0 hPa 0,0 l/m 6,8 km/h (2 Bft) S-SO 157 0 min 6,1 C 5,6 C 23,8 km/h (4 Bft)
22.12.2020 04:50 8,3 C 6,8 C 7,5 C 7,8 C 6,8 C 0,0 C 87 % 93 % 1014,0 hPa 0,0 l/m 7,4 km/h (2 Bft) O-SO 112 0 min 6,3 C 5,4 C 10,9 km/h (2 Bft)
22.12.2020 04:55 8,4 C 6,8 C 7,6 C 8,0 C 6,6 C 0,0 C 87 % 93 % 1014,0 hPa 0,0 l/m 8,5 km/h (2 Bft) S 180 0 min 6,4 C 4,9 C 15,0 km/h (3 Bft)
22.12.2020 05:00 8,5 C 6,8 C 7,7 C 8,0 C 6,5 C 0,0 C 87 % 92 % 1014,0 hPa 0,0 l/m 9,5 km/h (2 Bft) S 180 0 min 6,5 C 4,6 C 10,6 km/h (2 Bft)
22.12.2020 05:05 8,6 C 6,8 C 7,7 C 8,1 C 6,8 C 0,0 C 87 % 92 % 1014,0 hPa 0,0 l/m 8,7 km/h (2 Bft) S 180 0 min 6,6 C 5,1 C 14,3 km/h (3 Bft)
22.12.2020 05:10 8,8 C 6,8 C 7,8 C 8,1 C 6,8 C 0,0 C 87 % 92 % 1013,4 hPa 0,0 l/m 8,7 km/h (2 Bft) W 270 0 min 6,8 C 5,1 C 8,2 km/h (2 Bft)
22.12.2020 05:15 8,9 C 6,9 C 7,9 C 8,4 C 6,9 C 0,0 C 87 % 92 % 1013,4 hPa 0,0 l/m 8,0 km/h (2 Bft) O 90 0 min 6,9 C 5,4 C 13,4 km/h (3 Bft)
22.12.2020 05:20 8,9 C 6,9 C 7,9 C 8,3 C 7,2 C 0,0 C 87 % 92 % 1013,4 hPa 0,0 l/m 6,9 km/h (2 Bft) NW 315 0 min 6,9 C 6,0 C 5,1 km/h (1 Bft)
22.12.2020 05:25 9,0 C 6,8 C 7,9 C 8,5 C 7,4 C 0,0 C 86 % 92 % 1013,4 hPa 0,0 l/m 6,8 km/h (2 Bft) NO 45 0 min 6,8 C 6,3 C 5,3 km/h (1 Bft)
22.12.2020 05:30 9,1 C 6,8 C 8,0 C 8,6 C 7,5 C 0,0 C 86 % 92 % 1013,4 hPa 0,0 l/m 7,4 km/h (2 Bft) W 270 0 min 6,9 C 6,2 C 8,7 km/h (2 Bft)
22.12.2020 05:35 9,2 C 6,8 C 8,1 C 8,8 C 7,8 C 0,0 C 86 % 92 % 1013,4 hPa 0,0 l/m 8,2 km/h (2 Bft) S-SO 157 0 min 7,0 C 6,4 C 7,1 km/h (2 Bft)
22.12.2020 05:40 9,3 C 6,8 C 8,2 C 9,0 C 8,1 C 0,0 C 85 % 92 % 1013,4 hPa 0,0 l/m 8,4 km/h (2 Bft) S 180 0 min 6,9 C 6,7 C 8,0 km/h (2 Bft)
22.12.2020 05:45 9,5 C 6,9 C 8,2 C 9,1 C 7,8 C 0,0 C 85 % 92 % 1013,4 hPa 0,0 l/m 8,4 km/h (2 Bft) S 180 0 min 7,1 C 6,3 C 5,3 km/h (1 Bft)
22.12.2020 05:50 9,3 C 6,9 C 8,1 C 8,9 C 7,5 C 0,0 C 85 % 92 % 1013,5 hPa 0,0 l/m 7,9 km/h (2 Bft) S-SO 157 0 min 6,9 C 6,1 C 11,7 km/h (2 Bft)
22.12.2020 05:55 9,3 C 6,9 C 8,1 C 8,8 C 7,2 C 0,0 C 85 % 92 % 1013,5 hPa 0,0 l/m 8,0 km/h (2 Bft) N 360 0 min 6,9 C 5,7 C 24,6 km/h (4 Bft)
22.12.2020 06:00 9,3 C 6,9 C 8,1 C 8,6 C 7,2 C 0,0 C 85 % 92 % 1013,5 hPa 0,0 l/m 8,2 km/h (2 Bft) SO 135 0 min 6,9 C 5,7 C 8,5 km/h (2 Bft)
22.12.2020 06:05 9,5 C 6,9 C 8,3 C 8,9 C 7,6 C 0,0 C 85 % 91 % 1013,5 hPa 0,0 l/m 7,7 km/h (2 Bft) S-SO 157 0 min 7,1 C 6,3 C 9,5 km/h (2 Bft)
22.12.2020 06:10 9,5 C 6,9 C 8,3 C 8,9 C 7,7 C 0,0 C 85 % 91 % 1013,7 hPa 0,0 l/m 7,2 km/h (2 Bft) SO 135 0 min 7,1 C 6,5 C 6,3 km/h (2 Bft)
22.12.2020 06:15 9,5 C 6,9 C 8,4 C 9,1 C 8,2 C 0,0 C 85 % 91 % 1013,7 hPa 0,0 l/m 6,9 km/h (2 Bft) W 270 0 min 7,1 C 7,2 C 6,4 km/h (2 Bft)
22.12.2020 06:20 9,6 C 6,9 C 8,5 C 9,2 C 8,3 C 0,0 C 85 % 92 % 1013,7 hPa 0,0 l/m 7,1 km/h (2 Bft) O-SO 112 0 min 7,2 C 7,2 C 9,7 km/h (2 Bft)
22.12.2020 06:25 9,6 C 6,9 C 8,5 C 9,2 C 8,5 C 0,0 C 85 % 92 % 1013,7 hPa 0,0 l/m 7,6 km/h (2 Bft) O-NO 67 0 min 7,2 C 7,3 C 11,7 km/h (2 Bft)
22.12.2020 06:30 9,6 C 6,9 C 8,5 C 9,3 C 8,8 C 0,0 C 84 % 92 % 1013,3 hPa 0,0 l/m 7,4 km/h (2 Bft) S 180 0 min 7,0 C 7,7 C 10,6 km/h (2 Bft)
22.12.2020 06:35 9,6 C 6,9 C 8,6 C 9,4 C 8,7 C 0,0 C 84 % 92 % 1013,3 hPa 0,0 l/m 8,4 km/h (2 Bft) S 180 0 min 7,0 C 7,4 C 10,5 km/h (2 Bft)
22.12.2020 06:40 9,7 C 6,9 C 8,6 C 9,5 C 8,8 C 0,0 C 84 % 91 % 1013,3 hPa 0,0 l/m 8,2 km/h (2 Bft) SO 135 0 min 7,1 C 7,6 C 9,8 km/h (2 Bft)
22.12.2020 06:45 9,8 C 6,9 C 8,7 C 9,6 C 9,2 C 0,0 C 84 % 91 % 1013,3 hPa 0,0 l/m 6,9 km/h (2 Bft) SO 135 0 min 7,2 C 8,3 C 6,1 km/h (2 Bft)
22.12.2020 06:50 9,8 C 6,9 C 8,7 C 9,7 C 9,4 C 0,0 C 84 % 91 % 1013,1 hPa 0,0 l/m 6,3 km/h (2 Bft) S-SO 157 0 min 7,2 C 8,7 C 7,9 km/h (2 Bft)
22.12.2020 06:55 9,9 C 6,9 C 8,7 C 9,8 C 9,2 C 0,0 C 84 % 91 % 1013,1 hPa 0,0 l/m 7,7 km/h (2 Bft) S 180 0 min 7,3 C 8,1 C 27,5 km/h (4 Bft)
22.12.2020 07:00 9,9 C 7,0 C 8,8 C 9,7 C 9,2 C 0,0 C 84 % 91 % 1013,1 hPa 0,0 l/m 8,5 km/h (2 Bft) W-SW 247 0 min 7,3 C 8,0 C 14,3 km/h (3 Bft)
22.12.2020 07:05 9,9 C 7,0 C 8,9 C 9,8 C 9,1 C 0,0 C 84 % 91 % 1013,1 hPa 0,0 l/m 7,9 km/h (2 Bft) O-NO 67 0 min 7,3 C 8,0 C 15,4 km/h (3 Bft)
22.12.2020 07:10 10,0 C 7,0 C 8,9 C 9,8 C 9,0 C 0,0 C 84 % 91 % 1012,8 hPa 0,0 l/m 7,9 km/h (2 Bft) SO 135 0 min 7,4 C 7,9 C 8,2 km/h (2 Bft)
22.12.2020 07:15 10,0 C 7,0 C 8,9 C 9,8 C 9,1 C 0,0 C 84 % 91 % 1012,8 hPa 0,0 l/m 9,2 km/h (2 Bft) N-NO 22 0 min 7,4 C 7,7 C 10,5 km/h (2 Bft)
22.12.2020 07:20 10,0 C 7,0 C 8,9 C 9,9 C 9,3 C 0,0 C 84 % 91 % 1012,8 hPa 0,0 l/m 8,2 km/h (2 Bft) S-SO 157 0 min 7,4 C 8,1 C 15,0 km/h (3 Bft)
22.12.2020 07:25 10,0 C 7,1 C 9,0 C 9,8 C 9,2 C 0,0 C 84 % 91 % 1012,8 hPa 0,0 l/m 7,7 km/h (2 Bft) S 180 0 min 7,4 C 8,1 C 11,7 km/h (2 Bft)
22.12.2020 07:30 10,0 C 7,1 C 9,0 C 9,8 C 8,8 C 0,0 C 84 % 91 % 1012,8 hPa 0,0 l/m 8,0 km/h (2 Bft) W 270 0 min 7,4 C 7,6 C 9,8 km/h (2 Bft)
22.12.2020 07:35 10,0 C 7,1 C 8,9 C 9,6 C 8,7 C 0,0 C 84 % 91 % 1012,8 hPa 0,0 l/m 7,1 km/h (2 Bft) SO 135 0 min 7,4 C 7,7 C 9,0 km/h (2 Bft)
22.12.2020 07:40 10,0 C 7,1 C 8,9 C 9,6 C 8,4 C 0,0 C 84 % 91 % 1012,8 hPa 0,0 l/m 7,7 km/h (2 Bft) N 360 0 min 7,4 C 7,2 C 12,2 km/h (2 Bft)
22.12.2020 07:45 10,1 C 7,1 C 9,1 C 9,7 C 8,6 C 0,0 C 84 % 91 % 1012,8 hPa 0,0 l/m 8,4 km/h (2 Bft) W 270 0 min 7,5 C 7,3 C 18,2 km/h (3 Bft)
22.12.2020 07:50 10,3 C 7,1 C 9,2 C 9,9 C 8,9 C 0,0 C 84 % 91 % 1012,8 hPa 0,0 l/m 8,5 km/h (2 Bft) SW 225 0 min 7,7 C 7,6 C 11,1 km/h (2 Bft)
22.12.2020 07:55 10,3 C 7,1 C 9,2 C 10,0 C 9,3 C 0,0 C 84 % 91 % 1012,8 hPa 0,0 l/m 7,9 km/h (2 Bft) SO 135 0 min 7,7 C 8,2 C 9,3 km/h (2 Bft)
22.12.2020 08:00 10,3 C 7,1 C 9,2 C 10,1 C 9,6 C 0,0 C 84 % 91 % 1012,8 hPa 0,0 l/m 6,9 km/h (2 Bft) N-NO 22 0 min 7,7 C 8,8 C 7,4 km/h (2 Bft)
22.12.2020 08:05 10,3 C 7,1 C 9,3 C 10,2 C 9,9 C 0,0 C 84 % 91 % 1012,8 hPa 0,0 l/m 6,4 km/h (2 Bft) O 90 0 min 7,7 C 9,3 C 7,2 km/h (2 Bft)
22.12.2020 08:10 10,4 C 7,1 C 9,4 C 10,2 C 9,7 C 0,0 C 84 % 91 % 1013,5 hPa 0,0 l/m 7,2 km/h (2 Bft) N-NO 22 0 min 7,8 C 8,8 C 7,6 km/h (2 Bft)
22.12.2020 08:15 10,5 C 7,2 C 9,5 C 10,3 C 9,9 C 0,0 C 84 % 91 % 1013,5 hPa 0,0 l/m 7,6 km/h (2 Bft) SO 135 0 min 7,9 C 9,0 C 3,9 km/h (1 Bft)
22.12.2020 08:20 10,5 C 7,2 C 9,5 C 10,3 C 9,9 C 0,0 C 84 % 91 % 1013,5 hPa 0,0 l/m 7,7 km/h (2 Bft) SW 225 0 min 7,9 C 9,0 C 12,6 km/h (3 Bft)
22.12.2020 08:25 10,6 C 7,2 C 9,7 C 10,5 C 10,2 C 0,0 C 84 % 91 % 1013,5 hPa 0,0 l/m 7,2 km/h (2 Bft) S 180 0 min 8,0 C 10,2 C 8,0 km/h (2 Bft)
22.12.2020 08:30 10,7 C 7,2 C 9,7 C 10,5 C 10,1 C 0,0 C 84 % 91 % 1013,1 hPa 0,0 l/m 7,6 km/h (2 Bft) S-SO 157 0 min 8,1 C 10,1 C 13,2 km/h (3 Bft)
22.12.2020 08:35 10,7 C 7,2 C 9,9 C 10,6 C 10,3 C 0,0 C 84 % 91 % 1013,1 hPa 0,0 l/m 6,8 km/h (2 Bft) S 180 0 min 8,1 C 10,3 C 14,8 km/h (3 Bft)
22.12.2020 08:40 10,7 C 7,2 C 9,9 C 10,6 C 10,4 C 0,0 C 84 % 90 % 1013,1 hPa 0,0 l/m 6,9 km/h (2 Bft) S-SO 157 0 min 8,1 C 10,4 C 11,7 km/h (2 Bft)
22.12.2020 08:45 10,8 C 7,2 C 9,9 C 10,6 C 10,3 C 0,0 C 84 % 91 % 1013,1 hPa 0,0 l/m 7,2 km/h (2 Bft) W 270 0 min 8,2 C 10,3 C 14,3 km/h (3 Bft)
22.12.2020 08:50 10,9 C 7,2 C 9,9 C 10,7 C 10,3 C 0,0 C 84 % 91 % 1013,1 hPa 0,0 l/m 7,2 km/h (2 Bft) W 270 0 min 8,3 C 10,3 C 8,4 km/h (2 Bft)
22.12.2020 08:55 10,8 C 7,2 C 9,9 C 10,7 C 10,4 C 0,0 C 84 % 91 % 1013,1 hPa 0,0 l/m 6,8 km/h (2 Bft) W 270 0 min 8,2 C 10,4 C 5,3 km/h (1 Bft)
22.12.2020 09:00 10,8 C 7,2 C 9,9 C 10,7 C 10,6 C 0,0 C 84 % 91 % 1013,1 hPa 0,0 l/m 6,0 km/h (2 Bft) NO 45 0 min 8,2 C 10,6 C 13,4 km/h (3 Bft)
22.12.2020 09:05 10,9 C 7,2 C 10,1 C 10,8 C 10,5 C 0,0 C 84 % 91 % 1013,1 hPa 0,0 l/m 6,9 km/h (2 Bft) SO 135 0 min 8,3 C 10,5 C 16,6 km/h (3 Bft)
22.12.2020 09:10 11,1 C 7,2 C 10,2 C 10,9 C 10,5 C 0,0 C 84 % 91 % 1012,8 hPa 0,0 l/m 7,9 km/h (2 Bft) SO 135 0 min 8,5 C 10,5 C 7,9 km/h (2 Bft)
22.12.2020 09:15 11,1 C 7,2 C 10,3 C 11,0 C 10,9 C 0,0 C 83 % 91 % 1012,8 hPa 0,0 l/m 7,4 km/h (2 Bft) O-SO 112 0 min 8,3 C 10,9 C 10,9 km/h (2 Bft)
22.12.2020 09:20 11,2 C 7,2 C 10,3 C 11,2 C 11,1 C 0,0 C 83 % 91 % 1012,8 hPa 0,0 l/m 6,6 km/h (2 Bft) S 180 0 min 8,4 C 11,1 C 8,5 km/h (2 Bft)
22.12.2020 09:25 11,3 C 7,2 C 10,5 C 11,5 C 11,5 C 0,2 C 83 % 91 % 1012,8 hPa 0,0 l/m 5,6 km/h (1 Bft) N 360 0 min 8,5 C 11,5 C 5,3 km/h (1 Bft)
22.12.2020 09:30 11,3 C 7,2 C 10,5 C 11,5 C 11,5 C 0,2 C 83 % 90 % 1013,2 hPa 0,0 l/m 5,6 km/h (1 Bft) O-SO 112 0 min 8,5 C 11,5 C 7,9 km/h (2 Bft)
22.12.2020 09:35 11,4 C 7,3 C 10,6 C 11,6 C 11,6 C 0,2 C 84 % 90 % 1013,2 hPa 0,0 l/m 6,0 km/h (2 Bft) SW 225 0 min 8,8 C 11,6 C 8,0 km/h (2 Bft)
22.12.2020 09:40 11,5 C 7,3 C 10,7 C 11,6 C 11,6 C 0,1 C 84 % 90 % 1013,2 hPa 0,0 l/m 6,8 km/h (2 Bft) S-SO 157 0 min 8,9 C 11,6 C 9,7 km/h (2 Bft)
22.12.2020 09:45 11,5 C 7,3 C 10,7 C 11,6 C 11,6 C 0,1 C 83 % 90 % 1013,2 hPa 0,0 l/m 6,9 km/h (2 Bft) N-NO 22 0 min 8,7 C 11,6 C 5,3 km/h (1 Bft)
22.12.2020 09:50 11,5 C 7,3 C 10,7 C 11,6 C 11,6 C 0,1 C 83 % 90 % 1013,2 hPa 0,0 l/m 6,3 km/h (2 Bft) SW 225 0 min 8,7 C 11,6 C 7,6 km/h (2 Bft)
22.12.2020 09:55 11,5 C 7,3 C 10,8 C 11,8 C 11,8 C 0,3 C 83 % 90 % 1013,2 hPa 0,0 l/m 5,8 km/h (2 Bft) NW 315 0 min 8,7 C 11,8 C 9,0 km/h (2 Bft)
22.12.2020 10:00 11,5 C 7,3 C 10,8 C 11,9 C 11,9 C 0,4 C 83 % 90 % 1013,2 hPa 0,0 l/m 5,1 km/h (1 Bft) N-NO 22 0 min 8,7 C 11,9 C 3,4 km/h (1 Bft)
22.12.2020 10:05 11,5 C 7,3 C 10,9 C 11,8 C 11,8 C 0,3 C 83 % 89 % 1013,2 hPa 0,0 l/m 5,6 km/h (1 Bft) S-SO 157 0 min 8,7 C 11,8 C 4,5 km/h (1 Bft)
22.12.2020 10:10 11,5 C 7,3 C 10,9 C 11,8 C 11,8 C 0,3 C 83 % 90 % 1013,7 hPa 0,0 l/m 6,0 km/h (2 Bft) W 270 0 min 8,7 C 11,8 C 6,8 km/h (2 Bft)
22.12.2020 10:15 11,6 C 7,3 C 11,0 C 11,9 C 11,9 C 0,3 C 83 % 90 % 1013,7 hPa 0,0 l/m 5,6 km/h (1 Bft) S 180 0 min 8,8 C 11,9 C 9,5 km/h (2 Bft)
22.12.2020 10:20 11,7 C 7,3 C 11,0 C 11,7 C 11,7 C 0,0 C 83 % 89 % 1013,7 hPa 0,0 l/m 6,6 km/h (2 Bft) SO 135 0 min 8,9 C 11,7 C 14,8 km/h (3 Bft)
22.12.2020 10:25 11,7 C 7,4 C 11,1 C 11,8 C 11,8 C 0,1 C 83 % 89 % 1013,7 hPa 0,0 l/m 7,4 km/h (2 Bft) S-SO 157 0 min 8,9 C 11,8 C 8,9 km/h (2 Bft)
22.12.2020 10:30 11,8 C 7,4 C 11,3 C 12,0 C 12,0 C 0,2 C 83 % 89 % 1013,5 hPa 0,0 l/m 6,9 km/h (2 Bft) W-NW 292 0 min 9,0 C 12,0 C 7,1 km/h (2 Bft)
22.12.2020 10:35 11,8 C 7,4 C 11,4 C 12,7 C 12,7 C 0,9 C 83 % 89 % 1013,5 hPa 0,0 l/m 5,6 km/h (1 Bft) N-NO 22 0 min 9,0 C 12,7 C 8,5 km/h (2 Bft)
22.12.2020 10:40 11,9 C 7,4 C 11,5 C 12,8 C 12,8 C 0,9 C 83 % 89 % 1013,5 hPa 0,0 l/m 5,5 km/h (1 Bft) W-SW 247 0 min 9,1 C 12,8 C 12,1 km/h (2 Bft)
22.12.2020 10:45 11,9 C 7,4 C 11,4 C 12,8 C 12,8 C 0,9 C 83 % 88 % 1013,5 hPa 0,0 l/m 5,1 km/h (1 Bft) S-SW 202 0 min 9,1 C 12,8 C 7,9 km/h (2 Bft)
22.12.2020 10:50 11,9 C 7,4 C 11,4 C 12,8 C 12,8 C 0,9 C 83 % 88 % 1013,4 hPa 0,0 l/m 4,8 km/h (1 Bft) NW 315 0 min 9,1 C 12,8 C 6,6 km/h (2 Bft)
22.12.2020 10:55 12,0 C 7,4 C 11,4 C 12,7 C 12,7 C 0,7 C 83 % 88 % 1013,4 hPa 0,0 l/m 5,1 km/h (1 Bft) SW 225 0 min 9,2 C 12,7 C 10,9 km/h (2 Bft)
22.12.2020 11:00 12,0 C 7,4 C 11,4 C 12,6 C 12,6 C 0,6 C 83 % 88 % 1013,4 hPa 0,0 l/m 6,0 km/h (2 Bft) S-SO 157 0 min 9,2 C 12,6 C 9,7 km/h (2 Bft)
22.12.2020 11:05 12,1 C 7,4 C 11,5 C 12,4 C 12,4 C 0,3 C 83 % 88 % 1013,4 hPa 0,0 l/m 7,1 km/h (2 Bft) SW 225 0 min 9,3 C 12,4 C 13,2 km/h (3 Bft)
22.12.2020 11:10 12,3 C 7,5 C 11,7 C 12,6 C 12,6 C 0,3 C 83 % 87 % 1013,4 hPa 0,0 l/m 6,3 km/h (2 Bft) NW 315 0 min 9,5 C 12,6 C 7,1 km/h (2 Bft)
22.12.2020 11:15 12,3 C 7,5 C 11,7 C 13,1 C 13,1 C 0,8 C 83 % 87 % 1013,4 hPa 0,0 l/m 5,8 km/h (2 Bft) SW 225 0 min 9,5 C 13,1 C 11,7 km/h (2 Bft)
22.12.2020 11:20 12,3 C 7,5 C 11,7 C 12,8 C 12,8 C 0,5 C 83 % 87 % 1013,4 hPa 0,0 l/m 6,0 km/h (2 Bft) W-SW 247 0 min 9,5 C 12,8 C 6,1 km/h (2 Bft)
22.12.2020 11:25 12,3 C 7,5 C 11,9 C 12,8 C 12,8 C 0,5 C 83 % 87 % 1013,4 hPa 0,0 l/m 6,3 km/h (2 Bft) W-NW 292 0 min 9,5 C 12,8 C 6,1 km/h (2 Bft)
22.12.2020 11:30 12,4 C 7,5 C 11,9 C 13,0 C 13,0 C 0,6 C 83 % 87 % 1013,5 hPa 0,0 l/m 6,1 km/h (2 Bft) S-SO 157 0 min 9,6 C 13,0 C 10,0 km/h (2 Bft)
22.12.2020 11:35 12,4 C 7,5 C 12,2 C 13,5 C 13,5 C 1,1 C 83 % 87 % 1013,5 hPa 0,0 l/m 5,3 km/h (1 Bft) SW 225 0 min 9,6 C 13,5 C 5,1 km/h (1 Bft)
22.12.2020 11:40 12,6 C 7,5 C 12,3 C 13,6 C 13,6 C 1,0 C 83 % 87 % 1013,5 hPa 0,0 l/m 5,3 km/h (1 Bft) W 270 0 min 9,8 C 13,6 C 4,8 km/h (1 Bft)
22.12.2020 11:45 12,7 C 7,6 C 12,4 C 13,8 C 13,8 C 1,1 C 83 % 86 % 1013,5 hPa 0,0 l/m 5,3 km/h (1 Bft) W-SW 247 0 min 9,9 C 13,8 C 6,4 km/h (2 Bft)
22.12.2020 11:50 12,8 C 7,6 C 12,3 C 13,8 C 13,8 C 1,0 C 83 % 86 % 1013,5 hPa 0,0 l/m 5,5 km/h (1 Bft) O 90 0 min 10,0 C 13,8 C 5,3 km/h (1 Bft)
22.12.2020 11:55 12,8 C 7,6 C 12,3 C 13,8 C 13,8 C 1,0 C 82 % 86 % 1013,5 hPa 0,0 l/m 5,8 km/h (2 Bft) SO 135 0 min 9,8 C 13,8 C 6,9 km/h (2 Bft)
22.12.2020 12:00 12,8 C 7,6 C 12,1 C 13,5 C 13,5 C 0,7 C 82 % 86 % 1013,5 hPa 0,0 l/m 6,0 km/h (2 Bft) N-NW 337 0 min 9,8 C 13,5 C 11,3 km/h (2 Bft)
22.12.2020 12:05 12,8 C 7,6 C 12,1 C 13,5 C 13,5 C 0,7 C 82 % 86 % 1013,5 hPa 0,0 l/m 5,3 km/h (1 Bft) S-SO 157 0 min 9,8 C 13,5 C 5,0 km/h (1 Bft)
22.12.2020 12:10 12,8 C 7,6 C 12,1 C 13,4 C 13,4 C 0,6 C 82 % 86 % 1013,8 hPa 0,0 l/m 5,0 km/h (1 Bft) S-SO 157 0 min 9,8 C 13,4 C 8,7 km/h (2 Bft)
22.12.2020 12:15 12,9 C 7,6 C 12,3 C 13,5 C 13,5 C 0,6 C 82 % 85 % 1013,8 hPa 0,0 l/m 5,3 km/h (1 Bft) S 180 0 min 9,9 C 13,5 C 10,1 km/h (2 Bft)
22.12.2020 12:20 13,1 C 7,7 C 12,3 C 13,6 C 13,6 C 0,5 C 82 % 85 % 1013,8 hPa 0,0 l/m 6,1 km/h (2 Bft) S-SO 157 0 min 10,1 C 13,6 C 6,6 km/h (2 Bft)
22.12.2020 12:25 13,2 C 7,7 C 12,5 C 13,7 C 13,7 C 0,5 C 82 % 85 % 1013,8 hPa 0,0 l/m 7,1 km/h (2 Bft) SO 135 0 min 10,2 C 13,7 C 4,3 km/h (1 Bft)
22.12.2020 12:30 13,2 C 7,7 C 12,7 C 13,9 C 13,8 C 0,7 C 82 % 85 % 1013,7 hPa 0,0 l/m 8,0 km/h (2 Bft) SW 225 0 min 10,2 C 13,8 C 10,1 km/h (2 Bft)
22.12.2020 12:35 13,5 C 7,7 C 12,9 C 14,1 C 14,1 C 0,6 C 81 % 84 % 1013,7 hPa 0,0 l/m 9,5 km/h (2 Bft) S 180 0 min 10,3 C 14,1 C 14,0 km/h (3 Bft)
22.12.2020 12:40 13,5 C 7,7 C 13,1 C 14,4 C 14,3 C 0,9 C 81 % 84 % 1013,7 hPa 0,0 l/m 9,7 km/h (2 Bft) S-SW 202 0 min 10,3 C 14,3 C 15,6 km/h (3 Bft)
22.12.2020 12:45 13,6 C 7,7 C 13,1 C 14,4 C 14,2 C 0,8 C 80 % 84 % 1013,7 hPa 0,0 l/m 10,5 km/h (2 Bft) S 180 0 min 10,2 C 14,2 C 13,5 km/h (3 Bft)
22.12.2020 12:50 13,6 C 7,7 C 13,1 C 14,2 C 14,2 C 0,6 C 80 % 84 % 1013,6 hPa 0,0 l/m 10,8 km/h (2 Bft) O 90 0 min 10,2 C 14,2 C 11,9 km/h (2 Bft)
22.12.2020 12:55 13,6 C 7,7 C 13,1 C 14,4 C 14,3 C 0,8 C 80 % 83 % 1013,6 hPa 0,0 l/m 9,7 km/h (2 Bft) SW 225 0 min 10,2 C 14,3 C 10,1 km/h (2 Bft)
22.12.2020 13:00 13,7 C 7,8 C 13,1 C 14,5 C 14,5 C 0,8 C 80 % 83 % 1013,6 hPa 0,0 l/m 8,4 km/h (2 Bft) S-SO 157 0 min 10,3 C 14,5 C 6,6 km/h (2 Bft)
22.12.2020 13:05 13,8 C 7,8 C 13,2 C 14,5 C 14,3 C 0,7 C 80 % 83 % 1013,6 hPa 0,0 l/m 9,8 km/h (2 Bft) SO 135 0 min 10,4 C 14,3 C 15,9 km/h (3 Bft)
22.12.2020 13:10 13,8 C 7,8 C 13,2 C 14,4 C 14,2 C 0,6 C 80 % 83 % 1013,6 hPa 0,0 l/m 10,8 km/h (2 Bft) S-SW 202 0 min 10,4 C 14,2 C 20,8 km/h (4 Bft)
22.12.2020 13:15 13,9 C 7,8 C 13,2 C 14,3 C 14,1 C 0,4 C 79 % 83 % 1013,6 hPa 0,0 l/m 10,6 km/h (2 Bft) W-SW 247 0 min 10,3 C 14,1 C 9,8 km/h (2 Bft)
22.12.2020 13:20 13,9 C 7,8 C 13,3 C 14,1 C 14,1 C 0,2 C 79 % 83 % 1013,6 hPa 0,0 l/m 11,1 km/h (2 Bft) W-SW 247 0 min 10,3 C 14,1 C 9,7 km/h (2 Bft)
22.12.2020 13:25 13,8 C 7,8 C 13,3 C 14,4 C 14,3 C 0,6 C 79 % 82 % 1013,6 hPa 0,0 l/m 9,7 km/h (2 Bft) O-SO 112 0 min 10,2 C 14,3 C 6,0 km/h (2 Bft)
22.12.2020 13:30 13,9 C 7,9 C 13,3 C 14,5 C 14,4 C 0,6 C 79 % 82 % 1013,1 hPa 0,0 l/m 9,0 km/h (2 Bft) SW 225 0 min 10,3 C 14,4 C 16,7 km/h (3 Bft)
22.12.2020 13:35 13,8 C 7,9 C 13,2 C 14,4 C 14,2 C 0,6 C 79 % 82 % 1013,1 hPa 0,0 l/m 9,7 km/h (2 Bft) W 270 0 min 10,2 C 14,2 C 11,9 km/h (2 Bft)
22.12.2020 13:40 13,9 C 7,9 C 13,2 C 14,3 C 14,1 C 0,4 C 79 % 82 % 1013,1 hPa 0,0 l/m 9,7 km/h (2 Bft) S 180 0 min 10,3 C 14,1 C 7,1 km/h (2 Bft)
22.12.2020 13:45 13,9 C 7,9 C 13,2 C 14,1 C 14,1 C 0,2 C 79 % 83 % 1013,1 hPa 0,0 l/m 9,5 km/h (2 Bft) S-SO 157 0 min 10,3 C 14,1 C 17,2 km/h (3 Bft)
22.12.2020 13:50 13,9 C 7,9 C 13,3 C 14,4 C 14,4 C 0,5 C 79 % 83 % 1013,5 hPa 0,0 l/m 8,0 km/h (2 Bft) N-NO 22 0 min 10,3 C 14,4 C 5,5 km/h (1 Bft)
22.12.2020 13:55 13,9 C 7,9 C 13,2 C 14,6 C 14,6 C 0,7 C 79 % 82 % 1013,5 hPa 0,0 l/m 6,9 km/h (2 Bft) SW 225 0 min 10,3 C 14,6 C 7,1 km/h (2 Bft)
22.12.2020 14:00 13,9 C 8,0 C 13,1 C 14,6 C 14,6 C 0,7 C 80 % 82 % 1013,5 hPa 0,0 l/m 6,6 km/h (2 Bft) W-SW 247 0 min 10,5 C 14,6 C 10,8 km/h (2 Bft)
22.12.2020 14:05 13,9 C 8,0 C 13,0 C 14,2 C 14,2 C 0,3 C 80 % 83 % 1013,5 hPa 0,0 l/m 6,6 km/h (2 Bft) O-NO 67 0 min 10,5 C 14,2 C 10,8 km/h (2 Bft)
22.12.2020 14:10 13,9 C 8,0 C 13,0 C 14,3 C 14,3 C 0,4 C 80 % 83 % 1013,4 hPa 0,0 l/m 7,1 km/h (2 Bft) S-SO 157 0 min 10,5 C 14,3 C 8,9 km/h (2 Bft)
22.12.2020 14:15 13,9 C 8,0 C 13,1 C 15,3 C 15,3 C 1,4 C 80 % 83 % 1013,4 hPa 0,0 l/m 7,1 km/h (2 Bft) N-NO 22 0 min 10,5 C 15,3 C 6,6 km/h (2 Bft)
22.12.2020 14:20 14,0 C 8,0 C 13,2 C 15,6 C 15,6 C 1,6 C 80 % 83 % 1013,4 hPa 0,0 l/m 6,9 km/h (2 Bft) W-NW 292 0 min 10,6 C 15,6 C 10,0 km/h (2 Bft)
22.12.2020 14:25 14,1 C 8,0 C 13,1 C 15,7 C 15,7 C 1,6 C 79 % 83 % 1013,4 hPa 0,0 l/m 7,9 km/h (2 Bft) S 180 0 min 10,5 C 15,7 C 9,7 km/h (2 Bft)
22.12.2020 14:30 14,0 C 8,0 C 13,2 C 15,6 C 15,6 C 1,6 C 79 % 83 % 1013,4 hPa 0,0 l/m 8,2 km/h (2 Bft) SW 225 0 min 10,4 C 15,6 C 12,9 km/h (3 Bft)
22.12.2020 14:35 14,0 C 8,0 C 13,3 C 15,6 C 15,6 C 1,6 C 79 % 82 % 1013,4 hPa 0,0 l/m 6,8 km/h (2 Bft) SW 225 0 min 10,4 C 15,6 C 8,0 km/h (2 Bft)
22.12.2020 14:40 14,0 C 8,1 C 13,3 C 15,2 C 15,2 C 1,2 C 79 % 82 % 1013,4 hPa 0,0 l/m 6,3 km/h (2 Bft) O 90 0 min 10,4 C 15,2 C 10,9 km/h (2 Bft)
22.12.2020 14:45 14,0 C 8,1 C 13,2 C 14,9 C 14,9 C 0,9 C 79 % 82 % 1013,4 hPa 0,0 l/m 6,0 km/h (2 Bft) NO 45 0 min 10,4 C 14,9 C 4,2 km/h (1 Bft)
22.12.2020 14:50 13,9 C 8,1 C 13,2 C 14,6 C 14,6 C 0,7 C 79 % 82 % 1014,1 hPa 0,0 l/m 6,4 km/h (2 Bft) W 270 0 min 10,3 C 14,6 C 10,0 km/h (2 Bft)
22.12.2020 14:55 13,9 C 8,1 C 13,2 C 14,3 C 14,3 C 0,4 C 79 % 83 % 1014,1 hPa 0,0 l/m 6,1 km/h (2 Bft) S-SW 202 0 min 10,3 C 14,3 C 9,7 km/h (2 Bft)
22.12.2020 15:00 13,8 C 8,1 C 13,1 C 14,3 C 14,3 C 0,5 C 79 % 83 % 1014,1 hPa 0,0 l/m 5,8 km/h (2 Bft) SW 225 0 min 10,2 C 14,3 C 9,5 km/h (2 Bft)
22.12.2020 15:05 13,9 C 8,1 C 13,1 C 14,3 C 14,3 C 0,4 C 79 % 83 % 1014,1 hPa 0,0 l/m 6,0 km/h (2 Bft) N-NW 337 0 min 10,3 C 14,3 C 8,2 km/h (2 Bft)
22.12.2020 15:10 13,9 C 8,2 C 13,1 C 14,2 C 14,2 C 0,3 C 79 % 83 % 1014,1 hPa 0,0 l/m 6,3 km/h (2 Bft) S 180 0 min 10,3 C 14,2 C 8,9 km/h (2 Bft)
22.12.2020 15:15 13,8 C 8,2 C 13,0 C 14,1 C 14,1 C 0,3 C 79 % 83 % 1014,1 hPa 0,0 l/m 6,1 km/h (2 Bft) O-NO 67 0 min 10,2 C 14,1 C 7,1 km/h (2 Bft)
22.12.2020 15:20 13,7 C 8,2 C 13,0 C 14,1 C 14,1 C 0,4 C 80 % 83 % 1014,1 hPa 0,0 l/m 5,3 km/h (1 Bft) S-SW 202 0 min 10,3 C 14,1 C 5,3 km/h (1 Bft)
22.12.2020 15:25 13,6 C 8,2 C 12,9 C 14,0 C 14,0 C 0,4 C 80 % 83 % 1014,1 hPa 0,0 l/m 5,6 km/h (1 Bft) SW 225 0 min 10,2 C 14,0 C 8,7 km/h (2 Bft)
22.12.2020 15:30 13,7 C 8,2 C 13,0 C 14,0 C 14,0 C 0,3 C 81 % 84 % 1014,2 hPa 0,0 l/m 6,3 km/h (2 Bft) O 90 0 min 10,5 C 14,0 C 12,7 km/h (3 Bft)
22.12.2020 15:35 13,7 C 8,3 C 12,9 C 13,9 C 13,9 C 0,2 C 81 % 84 % 1014,2 hPa 0,0 l/m 5,6 km/h (1 Bft) W 270 0 min 10,5 C 13,9 C 3,9 km/h (1 Bft)
22.12.2020 15:40 13,5 C 8,3 C 12,8 C 13,8 C 13,8 C 0,3 C 81 % 85 % 1014,2 hPa 0,0 l/m 5,5 km/h (1 Bft) N 360 0 min 10,3 C 13,8 C 11,4 km/h (2 Bft)
22.12.2020 15:45 13,4 C 8,3 C 12,7 C 13,7 C 13,7 C 0,3 C 81 % 85 % 1014,2 hPa 0,0 l/m 5,1 km/h (1 Bft) O-SO 112 5 min 10,2 C 13,7 C 6,4 km/h (2 Bft)
22.12.2020 15:50 13,5 C 8,3 C 12,7 C 13,6 C 13,6 C 0,1 C 81 % 85 % 1014,8 hPa 0,0 l/m 5,1 km/h (1 Bft) S 180 0 min 10,3 C 13,6 C 15,4 km/h (3 Bft)
22.12.2020 15:55 13,4 C 8,3 C 12,7 C 13,4 C 13,4 C 0,0 C 82 % 85 % 1014,8 hPa 0,0 l/m 6,3 km/h (2 Bft) S 180 0 min 10,4 C 13,4 C 12,6 km/h (3 Bft)
22.12.2020 16:00 13,4 C 8,3 C 12,6 C 13,4 C 13,3 C 0,0 C 82 % 85 % 1014,8 hPa 0,0 l/m 6,8 km/h (2 Bft) NW 315 0 min 10,4 C 13,3 C 4,3 km/h (1 Bft)
22.12.2020 16:05 13,4 C 8,3 C 12,6 C 13,5 C 13,5 C 0,1 C 82 % 85 % 1014,8 hPa 0,0 l/m 6,0 km/h (2 Bft) S 180 0 min 10,4 C 13,5 C 8,0 km/h (2 Bft)
22.12.2020 16:10 13,4 C 8,3 C 12,6 C 13,4 C 13,4 C 0,0 C 82 % 85 % 1014,8 hPa 0,0 l/m 6,1 km/h (2 Bft) SW 225 0 min 10,4 C 13,4 C 13,4 km/h (3 Bft)
22.12.2020 16:15 13,3 C 8,5 C 12,4 C 13,3 C 13,2 C 0,0 C 81 % 85 % 1014,8 hPa 0,0 l/m 6,3 km/h (2 Bft) S 180 0 min 10,1 C 13,2 C 5,0 km/h (1 Bft)
22.12.2020 16:20 13,3 C 8,5 C 12,4 C 13,3 C 13,2 C 0,0 C 81 % 85 % 1014,8 hPa 0,0 l/m 6,0 km/h (2 Bft) S 180 0 min 10,1 C 13,2 C 7,9 km/h (2 Bft)
22.12.2020 16:25 13,3 C 8,5 C 12,3 C 13,2 C 12,9 C 0,0 C 81 % 85 % 1014,8 hPa 0,0 l/m 7,4 km/h (2 Bft) SW 225 0 min 10,1 C 12,9 C 7,2 km/h (2 Bft)
22.12.2020 16:30 13,2 C 8,5 C 12,3 C 13,1 C 12,8 C 0,0 C 81 % 85 % 1015,1 hPa 0,0 l/m 7,7 km/h (2 Bft) SO 135 0 min 10,0 C 12,8 C 11,7 km/h (2 Bft)
22.12.2020 16:35 13,3 C 8,5 C 12,2 C 13,1 C 12,8 C 0,0 C 81 % 85 % 1015,1 hPa 0,0 l/m 6,9 km/h (2 Bft) W-SW 247 0 min 10,1 C 12,8 C 3,7 km/h (1 Bft)
22.12.2020 16:40 13,2 C 8,5 C 12,2 C 13,0 C 12,7 C 0,0 C 81 % 84 % 1015,1 hPa 0,0 l/m 6,9 km/h (2 Bft) NO 45 0 min 10,0 C 12,7 C 6,4 km/h (2 Bft)
22.12.2020 16:45 13,1 C 8,5 C 11,9 C 13,0 C 12,7 C 0,0 C 81 % 85 % 1015,1 hPa 0,0 l/m 5,8 km/h (2 Bft) SW 225 0 min 9,9 C 12,7 C 5,6 km/h (1 Bft)
22.12.2020 16:50 13,1 C 8,5 C 11,8 C 12,9 C 12,6 C 0,0 C 81 % 85 % 1015,6 hPa 0,0 l/m 5,1 km/h (1 Bft) S 180 0 min 9,9 C 12,6 C 8,2 km/h (2 Bft)
22.12.2020 16:55 12,9 C 8,5 C 11,6 C 12,7 C 12,4 C 0,0 C 81 % 85 % 1015,6 hPa 0,0 l/m 4,8 km/h (1 Bft) NO 45 0 min 9,7 C 12,4 C 2,7 km/h (1 Bft)
22.12.2020 17:00 12,8 C 8,5 C 11,5 C 12,6 C 12,2 C 0,0 C 81 % 85 % 1015,6 hPa 0,0 l/m 5,1 km/h (1 Bft) S-SW 202 0 min 9,6 C 12,2 C 7,1 km/h (2 Bft)
22.12.2020 17:05 12,9 C 8,5 C 11,5 C 12,6 C 12,1 C 0,0 C 81 % 85 % 1015,6 hPa 0,0 l/m 5,8 km/h (2 Bft) O-SO 112 0 min 9,7 C 12,1 C 2,3 km/h (1 Bft)
22.12.2020 17:10 12,7 C 8,5 C 11,4 C 12,4 C 11,9 C 0,0 C 81 % 85 % 1015,6 hPa 0,0 l/m 6,4 km/h (2 Bft) W-SW 247 0 min 9,5 C 11,9 C 7,4 km/h (2 Bft)
22.12.2020 17:15 12,6 C 8,5 C 11,3 C 12,4 C 12,0 C 0,0 C 81 % 86 % 1015,6 hPa 0,0 l/m 5,5 km/h (1 Bft) W-SW 247 0 min 9,4 C 12,0 C 7,7 km/h (2 Bft)
22.12.2020 17:20 12,6 C 8,6 C 11,4 C 12,4 C 12,0 C 0,0 C 81 % 85 % 1015,6 hPa 0,0 l/m 5,5 km/h (1 Bft) SW 225 0 min 9,4 C 12,0 C 9,2 km/h (2 Bft)
22.12.2020 17:25 12,4 C 8,6 C 11,3 C 12,3 C 12,1 C 0,0 C 81 % 85 % 1015,6 hPa 0,0 l/m 5,1 km/h (1 Bft) S 180 0 min 9,2 C 12,1 C 8,4 km/h (2 Bft)
22.12.2020 17:30 12,4 C 8,6 C 11,1 C 12,2 C 11,9 C 0,0 C 81 % 85 % 1015,5 hPa 0,0 l/m 4,7 km/h (1 Bft) S 180 0 min 9,2 C 11,9 C 5,3 km/h (1 Bft)
22.12.2020 17:35 12,3 C 8,6 C 11,0 C 12,0 C 11,5 C 0,0 C 81 % 85 % 1015,5 hPa 0,0 l/m 6,0 km/h (2 Bft) S-SW 202 0 min 9,1 C 11,5 C 9,5 km/h (2 Bft)
22.12.2020 17:40 12,3 C 8,6 C 11,0 C 12,0 C 11,3 C 0,0 C 81 % 86 % 1015,5 hPa 0,0 l/m 6,8 km/h (2 Bft) S 180 0 min 9,1 C 11,3 C 7,2 km/h (2 Bft)
22.12.2020 17:45 12,2 C 8,6 C 10,8 C 11,9 C 11,3 C 0,0 C 81 % 86 % 1015,5 hPa 0,0 l/m 6,6 km/h (2 Bft) SW 225 0 min 9,0 C 11,3 C 9,8 km/h (2 Bft)
22.12.2020 17:50 12,1 C 8,6 C 10,7 C 11,8 C 11,3 C 0,0 C 81 % 86 % 1015,8 hPa 0,0 l/m 5,8 km/h (2 Bft) SW 225 0 min 8,9 C 11,3 C 6,1 km/h (2 Bft)
22.12.2020 17:55 12,0 C 8,6 C 10,7 C 11,7 C 11,2 C 0,0 C 81 % 86 % 1015,8 hPa 0,0 l/m 5,8 km/h (2 Bft) S 180 0 min 8,8 C 11,2 C 7,6 km/h (2 Bft)
22.12.2020 18:00 11,9 C 8,6 C 10,6 C 11,7 C 11,4 C 0,0 C 81 % 86 % 1015,8 hPa 0,0 l/m 4,8 km/h (1 Bft) S-SW 202 0 min 8,7 C 11,4 C 3,7 km/h (1 Bft)
22.12.2020 18:05 11,9 C 8,6 C 10,5 C 11,7 C 11,2 C 0,0 C 81 % 86 % 1015,8 hPa 0,0 l/m 4,8 km/h (1 Bft) O-NO 67 0 min 8,7 C 11,2 C 13,0 km/h (3 Bft)
22.12.2020 18:10 11,9 C 8,6 C 10,5 C 11,6 C 11,1 C 0,0 C 81 % 86 % 1015,6 hPa 0,0 l/m 5,5 km/h (1 Bft) S 180 0 min 8,7 C 11,1 C 8,9 km/h (2 Bft)
22.12.2020 18:15 11,8 C 8,6 C 10,5 C 11,5 C 10,8 C 0,0 C 81 % 86 % 1015,6 hPa 0,0 l/m 6,3 km/h (2 Bft) S-SO 157 0 min 8,6 C 10,8 C 5,5 km/h (1 Bft)
22.12.2020 18:20 11,9 C 8,6 C 10,5 C 11,5 C 10,8 C 0,0 C 81 % 86 % 1015,6 hPa 0,0 l/m 6,4 km/h (2 Bft) S-SW 202 0 min 8,7 C 10,8 C 10,0 km/h (2 Bft)
22.12.2020 18:25 11,9 C 8,6 C 10,4 C 11,5 C 10,7 C 0,0 C 82 % 87 % 1015,6 hPa 0,0 l/m 6,8 km/h (2 Bft) S-SW 202 0 min 8,9 C 10,7 C 8,5 km/h (2 Bft)
22.12.2020 18:30 11,9 C 8,6 C 10,4 C 11,5 C 10,6 C 0,0 C 82 % 87 % 1015,8 hPa 0,0 l/m 7,2 km/h (2 Bft) W-SW 247 0 min 8,9 C 10,6 C 7,7 km/h (2 Bft)
22.12.2020 18:35 11,9 C 8,7 C 10,3 C 11,5 C 10,7 C 0,0 C 82 % 87 % 1015,8 hPa 0,0 l/m 6,8 km/h (2 Bft) S-SW 202 0 min 8,9 C 10,7 C 8,0 km/h (2 Bft)
22.12.2020 18:40 11,9 C 8,7 C 10,3 C 11,5 C 10,8 C 0,0 C 82 % 87 % 1015,8 hPa 0,0 l/m 6,6 km/h (2 Bft) SW 225 0 min 8,9 C 10,8 C 10,9 km/h (2 Bft)
22.12.2020 18:45 11,8 C 8,7 C 10,3 C 11,5 C 11,0 C 0,0 C 82 % 88 % 1015,8 hPa 0,0 l/m 5,6 km/h (1 Bft) S 180 0 min 8,8 C 11,0 C 6,3 km/h (2 Bft)
22.12.2020 18:50 11,7 C 8,7 C 10,3 C 11,5 C 11,1 C 0,0 C 82 % 88 % 1016,3 hPa 0,0 l/m 5,1 km/h (1 Bft) SW 225 0 min 8,7 C 11,1 C 10,5 km/h (2 Bft)
22.12.2020 18:55 11,7 C 8,7 C 10,4 C 11,5 C 11,2 C 0,0 C 83 % 88 % 1016,3 hPa 0,0 l/m 5,1 km/h (1 Bft) W-SW 247 0 min 8,9 C 11,2 C 6,4 km/h (2 Bft)
22.12.2020 19:00 11,7 C 8,7 C 10,6 C 11,6 C 11,4 C 0,0 C 83 % 88 % 1016,3 hPa 0,0 l/m 5,0 km/h (1 Bft) N-NO 22 0 min 8,9 C 11,4 C 7,7 km/h (2 Bft)
22.12.2020 19:05 11,7 C 8,7 C 10,5 C 11,6 C 11,3 C 0,0 C 83 % 88 % 1016,3 hPa 0,0 l/m 5,6 km/h (1 Bft) W-SW 247 0 min 8,9 C 11,3 C 12,6 km/h (3 Bft)
22.12.2020 19:10 11,7 C 8,7 C 10,5 C 11,5 C 11,1 C 0,0 C 83 % 88 % 1016,5 hPa 0,0 l/m 5,8 km/h (2 Bft) S 180 0 min 8,9 C 11,1 C 8,7 km/h (2 Bft)
22.12.2020 19:15 11,7 C 8,7 C 10,4 C 11,5 C 11,2 C 0,0 C 83 % 88 % 1016,5 hPa 0,0 l/m 5,1 km/h (1 Bft) N-NO 22 0 min 8,9 C 11,2 C 3,5 km/h (1 Bft)
22.12.2020 19:20 11,7 C 8,7 C 10,3 C 11,5 C 11,2 C 0,0 C 83 % 88 % 1016,5 hPa 0,0 l/m 4,5 km/h (1 Bft) W-SW 247 0 min 8,9 C 11,2 C 4,3 km/h (1 Bft)
22.12.2020 19:25 11,7 C 8,7 C 10,4 C 11,5 C 11,1 C 0,0 C 83 % 88 % 1016,5 hPa 0,0 l/m 3,9 km/h (1 Bft) O-NO 67 0 min 8,9 C 11,1 C 6,1 km/h (2 Bft)
22.12.2020 19:30 11,7 C 8,7 C 10,5 C 11,5 C 11,2 C 0,0 C 84 % 88 % 1015,9 hPa 0,0 l/m 4,3 km/h (1 Bft) SO 135 0 min 9,1 C 11,2 C 3,1 km/h (1 Bft)
22.12.2020 19:35 11,7 C 8,7 C 10,5 C 11,5 C 11,2 C 0,0 C 83 % 88 % 1015,9 hPa 0,0 l/m 4,5 km/h (1 Bft) S 180 0 min 8,9 C 11,2 C 7,4 km/h (2 Bft)
22.12.2020 19:40 11,7 C 8,7 C 10,5 C 11,5 C 11,2 C 0,0 C 83 % 88 % 1015,9 hPa 0,0 l/m 4,0 km/h (1 Bft) S-SW 202 0 min 8,9 C 11,2 C 6,9 km/h (2 Bft)
22.12.2020 19:45 11,7 C 8,7 C 10,5 C 11,5 C 11,1 C 0,0 C 84 % 88 % 1015,9 hPa 0,0 l/m 4,2 km/h (1 Bft) N 360 0 min 9,1 C 11,1 C 6,8 km/h (2 Bft)
22.12.2020 19:50 11,6 C 8,7 C 10,5 C 11,5 C 11,2 C 0,0 C 84 % 88 % 1016,1 hPa 0,0 l/m 3,9 km/h (1 Bft) W-SW 247 0 min 9,0 C 11,2 C 5,1 km/h (1 Bft)
22.12.2020 19:55 11,7 C 8,7 C 10,6 C 11,6 C 11,4 C 0,0 C 84 % 88 % 1016,1 hPa 0,0 l/m 3,4 km/h (1 Bft) SO 135 0 min 9,1 C 11,4 C 7,6 km/h (2 Bft)
22.12.2020 20:00 11,7 C 8,7 C 10,7 C 11,6 C 11,5 C 0,0 C 84 % 88 % 1016,1 hPa 0,0 l/m 3,7 km/h (1 Bft) W-SW 247 0 min 9,1 C 11,5 C 5,6 km/h (1 Bft)
22.12.2020 20:05 11,8 C 8,7 C 10,7 C 11,7 C 11,5 C 0,0 C 84 % 88 % 1016,1 hPa 0,0 l/m 4,0 km/h (1 Bft) O-SO 112 0 min 9,2 C 11,5 C 4,5 km/h (1 Bft)
22.12.2020 20:10 11,9 C 8,7 C 10,7 C 11,8 C 11,6 C 0,0 C 84 % 88 % 1015,9 hPa 0,0 l/m 3,7 km/h (1 Bft) O 90 0 min 9,3 C 11,6 C 3,2 km/h (1 Bft)
22.12.2020 20:15 11,9 C 8,8 C 10,8 C 11,8 C 11,6 C 0,0 C 84 % 88 % 1015,9 hPa 0,0 l/m 3,4 km/h (1 Bft) SO 135 0 min 9,3 C 11,6 C 2,9 km/h (1 Bft)
22.12.2020 20:20 11,8 C 8,8 C 10,9 C 11,8 C 11,7 C 0,0 C 84 % 88 % 1015,9 hPa 0,0 l/m 2,6 km/h (1 Bft) S 180 0 min 9,2 C 11,7 C 3,7 km/h (1 Bft)
22.12.2020 20:25 11,9 C 8,8 C 10,8 C 11,8 C 11,6 C 0,0 C 84 % 88 % 1015,9 hPa 0,0 l/m 1,8 km/h (1 Bft) S-SO 157 0 min 9,3 C 11,6 C 6,8 km/h (2 Bft)
22.12.2020 20:30 11,9 C 8,8 C 10,8 C 11,8 C 11,6 C 0,0 C 83 % 88 % 1015,8 hPa 0,0 l/m 2,1 km/h (1 Bft) O 90 0 min 9,1 C 11,6 C 1,9 km/h (1 Bft)
22.12.2020 20:35 11,8 C 8,8 C 10,7 C 11,7 C 11,5 C 0,0 C 84 % 88 % 1015,8 hPa 0,0 l/m 2,3 km/h (1 Bft) S 180 0 min 9,2 C 11,5 C 1,6 km/h (1 Bft)
22.12.2020 20:40 11,7 C 8,8 C 10,7 C 11,6 C 11,5 C 0,0 C 84 % 88 % 1015,8 hPa 0,0 l/m 1,8 km/h (1 Bft) S 180 0 min 9,1 C 11,5 C 2,1 km/h (1 Bft)
22.12.2020 20:45 11,7 C 8,8 C 10,7 C 11,6 C 11,4 C 0,0 C 84 % 88 % 1015,8 hPa 0,0 l/m 1,6 km/h (1 Bft) S-SO 157 0 min 9,1 C 11,4 C 2,7 km/h (1 Bft)
22.12.2020 20:50 11,7 C 8,8 C 10,6 C 11,6 C 11,4 C 0,0 C 84 % 88 % 1016,4 hPa 0,0 l/m 1,3 km/h (1 Bft) O-SO 112 0 min 9,1 C 11,4 C 2,1 km/h (1 Bft)
22.12.2020 20:55 11,7 C 8,8 C 10,6 C 11,6 C 11,4 C 0,0 C 84 % 88 % 1016,4 hPa 0,0 l/m 1,4 km/h (1 Bft) W-SW 247 0 min 9,1 C 11,4 C 0,0 km/h (0 Bft)
22.12.2020 21:00 11,6 C 8,8 C 10,6 C 11,5 C 11,3 C 0,0 C 84 % 88 % 1016,4 hPa 0,0 l/m 1,6 km/h (1 Bft) SO 135 0 min 9,0 C 11,3 C 3,9 km/h (1 Bft)
22.12.2020 21:05 11,5 C 8,8 C 10,5 C 11,5 C 11,4 C 0,0 C 84 % 88 % 1016,4 hPa 0,0 l/m 2,6 km/h (1 Bft) S 180 0 min 8,9 C 11,4 C 4,0 km/h (1 Bft)
22.12.2020 21:10 11,5 C 8,9 C 10,5 C 11,5 C 11,4 C 0,0 C 84 % 88 % 1016,6 hPa 0,0 l/m 3,9 km/h (1 Bft) N-NW 337 0 min 8,9 C 11,4 C 6,4 km/h (2 Bft)
22.12.2020 21:15 11,5 C 8,9 C 10,5 C 11,5 C 11,5 C 0,0 C 84 % 89 % 1016,6 hPa 0,0 l/m 4,0 km/h (1 Bft) SW 225 0 min 8,9 C 11,5 C 3,7 km/h (1 Bft)
22.12.2020 21:20 11,5 C 8,9 C 10,4 C 11,5 C 11,5 C 0,0 C 84 % 88 % 1016,6 hPa 0,0 l/m 3,4 km/h (1 Bft) SW 225 0 min 8,9 C 11,5 C 2,7 km/h (1 Bft)
22.12.2020 21:25 11,5 C 8,9 C 10,3 C 11,5 C 11,4 C 0,0 C 85 % 88 % 1016,6 hPa 0,0 l/m 3,2 km/h (1 Bft) S 180 0 min 9,1 C 11,4 C 4,3 km/h (1 Bft)
22.12.2020 21:30 11,6 C 8,9 C 10,4 C 11,5 C 11,4 C 0,0 C 85 % 89 % 1016,6 hPa 0,0 l/m 3,7 km/h (1 Bft) W-SW 247 0 min 9,2 C 11,4 C 5,5 km/h (1 Bft)
22.12.2020 21:35 11,6 C 8,9 C 10,3 C 11,5 C 11,4 C 0,0 C 85 % 89 % 1016,6 hPa 0,0 l/m 4,7 km/h (1 Bft) SW 225 0 min 9,2 C 11,4 C 5,3 km/h (1 Bft)
22.12.2020 21:40 11,6 C 8,9 C 10,3 C 11,5 C 11,3 C 0,0 C 85 % 89 % 1016,6 hPa 0,0 l/m 4,2 km/h (1 Bft) SW 225 0 min 9,2 C 11,3 C 4,2 km/h (1 Bft)
22.12.2020 21:45 11,4 C 8,9 C 10,2 C 11,3 C 11,2 C 0,0 C 85 % 89 % 1016,6 hPa 0,0 l/m 3,2 km/h (1 Bft) SW 225 0 min 9,0 C 11,2 C 4,2 km/h (1 Bft)
22.12.2020 21:50 11,5 C 8,9 C 10,2 C 11,4 C 11,1 C 0,0 C 85 % 89 % 1016,6 hPa 0,0 l/m 2,4 km/h (1 Bft) W-SW 247 0 min 9,1 C 11,1 C 4,3 km/h (1 Bft)
22.12.2020 21:55 11,3 C 9,0 C 10,0 C 11,2 C 11,1 C 0,0 C 85 % 89 % 1016,6 hPa 0,0 l/m 1,9 km/h (1 Bft) SW 225 0 min 8,9 C 11,1 C 2,9 km/h (1 Bft)
22.12.2020 22:00 11,3 C 9,0 C 10,1 C 11,2 C 11,1 C 0,0 C 85 % 89 % 1016,6 hPa 0,0 l/m 2,3 km/h (1 Bft) SW 225 0 min 8,9 C 11,1 C 2,4 km/h (1 Bft)
22.12.2020 22:05 11,3 C 9,0 C 10,1 C 11,2 C 11,1 C 0,0 C 86 % 89 % 1016,6 hPa 0,0 l/m 2,3 km/h (1 Bft) W 270 0 min 9,0 C 11,1 C 2,4 km/h (1 Bft)
22.12.2020 22:10 11,3 C 9,0 C 10,1 C 11,2 C 11,1 C 0,0 C 86 % 90 % 1016,6 hPa 0,0 l/m 1,6 km/h (1 Bft) W-SW 247 0 min 9,0 C 11,1 C 0,0 km/h (0 Bft)
22.12.2020 22:15 11,2 C 9,0 C 10,0 C 11,1 C 11,0 C 0,0 C 86 % 90 % 1016,6 hPa 0,0 l/m 1,3 km/h (1 Bft) S-SW 202 0 min 8,9 C 11,0 C 3,7 km/h (1 Bft)
22.12.2020 22:20 11,3 C 9,0 C 9,9 C 11,2 C 11,0 C 0,0 C 86 % 90 % 1016,6 hPa 0,0 l/m 1,3 km/h (1 Bft) SW 225 0 min 9,0 C 11,0 C 3,5 km/h (1 Bft)
22.12.2020 22:25 11,2 C 9,0 C 9,9 C 11,1 C 10,9 C 0,0 C 86 % 90 % 1016,6 hPa 0,0 l/m 1,6 km/h (1 Bft) W-SW 247 0 min 8,9 C 10,9 C 3,2 km/h (1 Bft)
22.12.2020 22:30 11,2 C 9,0 C 9,9 C 11,1 C 10,9 C 0,0 C 86 % 90 % 1016,4 hPa 0,0 l/m 1,8 km/h (1 Bft) W-SW 247 0 min 8,9 C 10,9 C 1,9 km/h (1 Bft)
22.12.2020 22:35 11,1 C 9,0 C 9,9 C 11,1 C 11,0 C 0,0 C 86 % 90 % 1016,4 hPa 0,0 l/m 1,8 km/h (1 Bft) SW 225 0 min 8,8 C 11,0 C 1,6 km/h (1 Bft)
22.12.2020 22:40 11,1 C 9,0 C 10,0 C 11,1 C 11,0 C 0,0 C 86 % 91 % 1016,4 hPa 0,0 l/m 1,6 km/h (1 Bft) SW 225 0 min 8,8 C 11,0 C 2,6 km/h (1 Bft)
22.12.2020 22:45 11,2 C 9,0 C 10,1 C 11,2 C 11,1 C 0,0 C 86 % 91 % 1016,4 hPa 0,0 l/m 1,8 km/h (1 Bft) W-SW 247 0 min 8,9 C 11,1 C 1,8 km/h (1 Bft)
22.12.2020 22:50 11,1 C 9,0 C 10,0 C 11,1 C 11,1 C 0,0 C 86 % 91 % 1016,6 hPa 0,0 l/m 1,6 km/h (1 Bft) S 180 0 min 8,8 C 11,1 C 1,6 km/h (1 Bft)
22.12.2020 22:55 11,1 C 9,0 C 10,0 C 11,1 C 11,1 C 0,0 C 86 % 91 % 1016,6 hPa 0,0 l/m 0,8 km/h (0 Bft) NW 315 0 min 8,8 C 11,1 C 1,6 km/h (1 Bft)
22.12.2020 23:00 11,0 C 9,1 C 10,0 C 11,1 C 11,1 C 0,1 C 86 % 91 % 1016,6 hPa 0,0 l/m 0,5 km/h (0 Bft) N-NW 337 0 min 8,7 C 11,1 C 0,0 km/h (0 Bft)
22.12.2020 23:05 11,0 C 9,1 C 10,0 C 11,0 C 11,0 C 0,0 C 86 % 91 % 1016,6 hPa 0,0 l/m 0,5 km/h (0 Bft) NW 315 0 min 8,7 C 11,0 C 3,4 km/h (1 Bft)
22.12.2020 23:10 10,8 C 9,1 C 9,9 C 10,9 C 10,9 C 0,1 C 86 % 90 % 1016,3 hPa 0,0 l/m 0,6 km/h (0 Bft) W 270 0 min 8,6 C 10,9 C 0,0 km/h (0 Bft)
22.12.2020 23:15 10,9 C 9,1 C 9,9 C 10,9 C 10,9 C 0,0 C 87 % 90 % 1016,3 hPa 0,0 l/m 0,8 km/h (0 Bft) N-NO 22 0 min 8,8 C 10,9 C 3,9 km/h (1 Bft)
22.12.2020 23:20 10,8 C 9,0 C 9,9 C 10,9 C 10,9 C 0,1 C 87 % 90 % 1016,3 hPa 0,0 l/m 0,8 km/h (0 Bft) SW 225 0 min 8,7 C 10,9 C 0,0 km/h (0 Bft)
22.12.2020 23:25 10,8 C 9,0 C 9,9 C 10,9 C 10,9 C 0,1 C 87 % 90 % 1016,3 hPa 0,0 l/m 0,2 km/h (0 Bft) NW 315 0 min 8,7 C 10,9 C 0,0 km/h (0 Bft)
22.12.2020 23:30 10,8 C 9,0 C 9,8 C 10,9 C 10,9 C 0,1 C 87 % 90 % 1016,9 hPa 0,0 l/m 0,2 km/h (0 Bft) NW 315 0 min 8,7 C 10,9 C 0,0 km/h (0 Bft)
22.12.2020 23:35 10,7 C 9,1 C 9,7 C 10,9 C 10,9 C 0,2 C 87 % 90 % 1016,9 hPa 0,0 l/m 0,0 km/h (0 Bft) NW 315 0 min 8,6 C 10,9 C 0,0 km/h (0 Bft)
22.12.2020 23:40 10,6 C 9,1 C 9,7 C 10,8 C 10,8 C 0,2 C 87 % 90 % 1016,9 hPa 0,0 l/m 0,0 km/h (0 Bft) NW 315 0 min 8,5 C 10,8 C 0,0 km/h (0 Bft)
22.12.2020 23:45 10,5 C 9,2 C 9,5 C 10,7 C 10,7 C 0,2 C 87 % 90 % 1016,9 hPa 0,0 l/m 0,0 km/h (0 Bft) NW 315 0 min 8,4 C 10,7 C 0,0 km/h (0 Bft)
22.12.2020 23:50 10,5 C 9,2 C 9,5 C 10,5 C 10,5 C 0,0 C 87 % 91 % 1016,9 hPa 0,0 l/m 0,0 km/h (0 Bft) N-NO 22 0 min 8,4 C 10,5 C 0,0 km/h (0 Bft)
22.12.2020 23:55 10,4 C 9,2 C 9,5 C 10,4 C 10,3 C 0,0 C 87 % 91 % 1016,9 hPa 0,0 l/m 0,5 km/h (0 Bft) NO 45 0 min 8,3 C 10,3 C 1,9 km/h (1 Bft)
_ Min-Zeit 00:00 00:55 00:00 00:00 03:50 01:10 13:15 13:25 07:10 - 23:35 - - - 00:00 03:50 00:05
Minimum _ 5,8 C 6,1 C 5,4 C 6,1 C 5,9 C 0,0 C 79 % 82 % 1012,8 hPa - 0,0 km/h (0 Bft) - - - 3,1 C 4,1 C 0,0 km/h (0 Bft)
_ Max-Zeit 14:25 23:45 13:20 14:25 14:25 14:20 03:45 04:15 00:00 02:55 13:20 - - 15:45 14:20 14:25 06:55
Maximum _ 14,1 C 9,2 C 13,3 C 15,7 C 15,7 C 1,6 C 87 % 93 % 1017,9 hPa 0,7 l/m 11,1 km/h
W-SW (2 Bft)
- - 5 min 10,6 C 15,7 C 27,5 km/h
S (4 Bft)
Durchschnitt _ 11,0 C 7,7 C 10,0 C 11,0 C 10,7 C 0,2 C 83 % 88 % 1014,8 hPa #2,1 l/m 5,6 km/h (1 Bft) S - #5 min. 8,2 C 10,3 C 7,7 km/h (2 Bft)
2020 www.wetterstation-wechselburg.de